GW6897 Weather Reports


time (UTC)temp
F
wind
direction
speed
knots
gust
knots
rain 1hr
in
rain 24hr
in
rain mn
in
humidity
%
barometer
mb
20260504160205 73 73 0.0 0.0 0.00 0.00 0.00 39 1010.4
20260504151132 62 344 0.0 0.0 0.00 0.00 0.00 53 1010.8
20260504150630 61 345 0.0 0.0 0.00 0.00 0.00 61 1011.0
20260504150126 60 344 0.0 0.0 0.00 0.00 0.00 65 1011.0
20260504141055 54 67 0.0 0.0 0.00 0.00 0.00 73 1010.7
20260504140552 54 64 0.0 0.0 0.00 0.00 0.00 74 1010.6
20260504130516 54 6 0.0 0.0 0.00 0.00 0.00 72 1010.1
20260504110403 56 344 0.0 0.0 0.00 0.00 0.00 69 1010.3
20260504100320 58 351 0.0 0.0 0.00 0.00 0.00 64 1010.2
20260504081714 57 31 1.7 1.7 0.00 0.00 0.00 69 1010.4
20260504081210 57 31 0.0 0.0 0.00 0.00 0.00 67 1010.2
20260504080707 58 31 0.0 0.0 0.00 0.00 0.00 66 1010.2
20260504080203 57 31 0.9 0.9 0.00 0.00 0.00 66 1010.2
20260504070131 58 58 0.0 0.0 0.00 0.00 0.00 68 1010.2
20260504050520 62 49 0.0 0.0 0.00 0.00 0.00 61 1010.2
20260504050017 63 49 0.0 0.0 0.00 0.00 0.00 62 1010.1
20260504045513 63 48 0.0 0.0 0.00 0.00 0.00 59 1010.2
20260504045009 63 49 0.0 0.0 0.00 0.00 0.00 61 1010.0
20260504044507 63 39 0.0 0.0 0.00 0.00 0.00 64 1010.2
20260504044003 63 39 0.0 0.0 0.00 0.00 0.00 63 1010.2
20260504043500 64 40 0.0 0.0 0.00 0.00 0.00 61 1010.1
20260504042958 64 40 0.0 0.0 0.00 0.00 0.00 61 1010.0
20260504042454 65 27 0.0 0.0 0.00 0.00 0.00 59 1010.0
20260504041951 65 27 0.0 0.0 0.00 0.00 0.00 58 1009.9
20260504041447 66 28 0.0 0.0 0.00 0.00 0.00 57 1009.9
20260504040943 66 24 0.0 0.9 0.00 0.00 0.00 58 1009.8
20260504040441 66 27 0.0 0.0 0.00 0.00 0.00 59 1010.1
20260504035937 66 27 0.0 0.0 0.00 0.00 0.00 58 1009.7
20260504035435 66 27 0.0 0.0 0.00 0.00 0.00 59 1009.6
20260504034931 67 27 0.0 0.0 0.00 0.00 0.00 57 1009.6
20260504034429 67 27 0.0 0.0 0.00 0.00 0.00 56 1009.7
20260504033926 67 27 0.9 0.9 0.00 0.00 0.00 56 1009.7
20260504033423 68 358 0.0 0.0 0.00 0.00 0.00 55 1009.6
20260504032920 68 358 0.0 0.0 0.00 0.00 0.00 55 1009.6
20260504032417 69 358 0.0 0.0 0.00 0.00 0.00 53 1009.7
20260504031914 69 358 0.0 0.0 0.00 0.00 0.00 52 1009.4
20260504031411 69 358 0.0 0.0 0.00 0.00 0.00 50 1009.2
20260504030908 70 358 0.0 0.0 0.00 0.00 0.00 50 1009.4
20260504030405 71 358 0.0 0.0 0.00 0.00 0.00 50 1009.5
20260504025900 71 358 0.0 0.0 0.00 0.00 0.00 48 1009.4
20260504025357 72 357 0.0 0.0 0.00 0.00 0.00 46 1009.3
20260504024854 72 357 0.0 0.0 0.00 0.00 0.00 46 1009.2
20260504024350 73 357 0.0 0.0 0.00 0.00 0.00 44 1009.2
20260504023847 73 357 0.0 0.0 0.00 0.00 0.00 43 1009.2
20260504023344 74 357 0.0 0.0 0.00 0.00 0.00 41 1009.2
20260504022840 75 357 0.0 0.0 0.00 0.00 0.00 39 1009.2
20260504022337 75 357 0.0 0.0 0.00 0.00 0.00 38 1009.3
20260504021833 76 357 0.0 0.0 0.00 0.00 0.00 36 1009.1
20260504021331 77 357 0.0 0.0 0.00 0.00 0.00 35 1009.2
20260504020828 77 356 0.0 0.0 0.00 0.00 0.00 34 1009.2
20260504020325 77 356 0.0 0.9 0.00 0.00 0.00 33 1009.1
20260504015820 78 45 0.0 0.0 0.00 0.00 0.00 32 1009.2
20260504015317 79 48 0.0 0.0 0.00 0.00 0.00 31 1009.4
20260504014813 80 70 0.0 0.0 0.00 0.00 0.00 30 1009.5
20260504014309 81 8 0.0 0.0 0.00 0.00 0.00 29 1009.4
20260504013807 82 7 0.0 0.0 0.00 0.00 0.00 28 1009.3
20260504013305 83 7 0.0 0.0 0.00 0.00 0.00 26 1009.4
20260504012801 84 11 0.0 0.0 0.00 0.00 0.00 25 1009.2
20260504012259 84 11 0.0 0.9 0.00 0.00 0.00 24 1009.2
20260504011756 85 76 0.9 0.9 0.00 0.00 0.00 24 1009.6
20260504011252 84 73 0.0 0.0 0.00 0.00 0.00 23 1009.5
20260504010748 84 86 0.0 0.0 0.00 0.00 0.00 25 1009.6
20260504010244 84 61 0.9 0.9 0.00 0.00 0.00 23 1009.5
20260504005741 84 87 0.0 0.9 0.00 0.00 0.00 22 1009.6
20260504005238 84 239 2.6 3.5 0.00 0.00 0.00 21 1009.5
20260504004736 83 353 0.0 0.0 0.00 0.00 0.00 21 1009.6
20260504004232 84 72 0.9 0.9 0.00 0.00 0.00 22 1009.8
20260504003729 84 76 0.0 0.9 0.00 0.00 0.00 20 1009.6
20260504003226 84 130 1.7 1.7 0.00 0.00 0.00 21 1009.7
20260504002723 84 53 0.9 0.9 0.00 0.00 0.00 20 1009.8
20260504002219 85 291 0.9 1.7 0.00 0.00 0.00 19 1009.8
20260504001718 85 329 0.9 0.9 0.00 0.00 0.00 17 1009.9
20260504001214 84 343 0.0 0.9 0.00 0.00 0.00 20 1010.1
20260504000711 86 140 1.7 3.5 0.00 0.00 0.00 19 1010.1
20260504000208 86 92 0.9 0.9 0.00 0.00 0.00 18 1009.9
20260503235706 86 71 0.0 0.0 0.00 0.00 0.00 19 1010.0
20260503235203 85 355 0.9 1.7 0.00 0.00 0.00 18 1010.1
20260503234701 86 210 0.9 2.6 0.00 0.00 0.00 19 1010.2
20260503234159 85 145 1.7 1.7 0.00 0.00 0.00 20 1010.3
20260503233655 84 121 1.7 2.6 0.00 0.00 0.00 20 1010.4
20260503233151 84 93 0.9 1.7 0.00 0.00 0.00 20 1010.1
20260503232648 86 125 0.9 2.6 0.00 0.00 0.00 20 1010.4
20260503232145 87 126 1.7 1.7 0.00 0.00 0.00 19 1010.4
20260503231644 86 89 0.9 1.7 0.00 0.00 0.00 21 1010.5
20260503231139 86 262 3.5 5.2 0.00 0.00 0.00 20 1010.6
20260503230636 86 353 0.9 1.7 0.00 0.00 0.00 20 1010.5
20260503230134 85 88 0.9 0.9 0.00 0.00 0.00 22 1010.6
20260503225631 84 200 1.7 2.6 0.00 0.00 0.00 21 1010.5
20260503225131 86 117 0.9 1.7 0.00 0.00 0.00 22 1010.7
20260503224628 85 135 2.6 3.5 0.00 0.00 0.00 21 1010.6
20260503224126 85 78 0.0 0.0 0.00 0.00 0.00 22 1010.6
20260503223624 85 155 1.7 2.6 0.00 0.00 0.00 21 1011.0
20260503223120 85 341 0.9 0.9 0.00 0.00 0.00 22 1010.8
20260503222618 85 189 2.6 2.6 0.00 0.00 0.00 22 1011.1
20260503222115 84 94 0.0 0.9 0.00 0.00 0.00 21 1011.0
20260503221613 84 114 1.7 1.7 0.00 0.00 0.00 22 1011.0
20260503221110 83 133 1.7 2.6 0.00 0.00 0.00 24 1011.0
20260503220607 83 130 0.9 1.7 0.00 0.00 0.00 23 1011.0
20260503220104 85 163 3.5 3.5 0.00 0.00 0.00 23 1011.1
20260503215601 84 37 0.9 1.7 0.00 0.00 0.00 24 1011.1
20260503215057 83 146 0.9 0.9 0.00 0.00 0.00 24 1011.1
20260503214555 82 43 0.0 0.9 0.00 0.00 0.00 25 1011.3
20260503214052 83 152 1.7 2.6 0.00 0.00 0.00 23 1011.3
20260503213550 82 179 3.5 3.5 0.00 0.00 0.00 24 1011.3
20260503213047 83 157 2.6 2.6 0.00 0.00 0.00 24 1011.4
20260503212544 83 173 2.6 2.6 0.00 0.00 0.00 24 1011.4
20260503212042 83 164 1.7 2.6 0.00 0.00 0.00 24 1011.5
20260503211539 82 121 0.0 0.9 0.00 0.00 0.00 24 1011.2
20260503211034 83 208 3.5 5.2 0.00 0.00 0.00 24 1011.3
20260503210531 82 142 1.7 2.6 0.00 0.00 0.00 26 1011.7
20260503210027 82 149 1.7 1.7 0.00 0.00 0.00 24 1011.7
20260503205524 82 159 2.6 5.2 0.00 0.00 0.00 24 1011.5
20260503205020 82 108 0.9 1.7 0.00 0.00 0.00 24 1011.8
20260503204517 81 75 0.0 0.0 0.00 0.00 0.00 25 1011.8
20260503204014 81 158 1.7 3.5 0.00 0.00 0.00 24 1012.0
20260503203511 80 80 0.9 0.9 0.00 0.00 0.00 26 1012.0
20260503203008 80 196 2.6 2.6 0.00 0.00 0.00 26 1012.0
20260503202506 80 217 2.6 2.6 0.00 0.00 0.00 25 1012.0
20260503202004 80 189 1.7 5.2 0.00 0.00 0.00 27 1012.2
20260503201501 81 167 2.6 2.6 0.00 0.00 0.00 25 1012.2
20260503200958 82 135 1.7 2.6 0.00 0.00 0.00 24 1012.3
20260503200455 81 271 2.6 3.5 0.00 0.00 0.00 25 1012.3
20260503195951 80 160 3.5 3.5 0.00 0.00 0.00 26 1012.4
20260503195449 81 178 0.9 2.6 0.00 0.00 0.00 27 1012.4
20260503194945 81 158 0.0 0.9 0.00 0.00 0.00 28 1012.6
20260503194443 81 98 1.7 3.5 0.00 0.00 0.00 24 1012.7
20260503193938 82 152 2.6 3.5 0.00 0.00 0.00 24 1012.6
20260503193433 81 63 0.0 0.9 0.00 0.00 0.00 27 1012.7
20260503192929 80 146 1.7 1.7 0.00 0.00 0.00 27 1012.6
20260503192426 80 84 0.9 1.7 0.00 0.00 0.00 29 1012.8
20260503191921 80 101 0.9 0.9 0.00 0.00 0.00 27 1012.9
20260503191419 79 54 0.0 0.9 0.00 0.00 0.00 27 1012.8
20260503190915 79 70 0.0 0.9 0.00 0.00 0.00 30 1013.0
20260503190413 80 175 2.6 3.5 0.00 0.00 0.00 27 1013.1
20260503185909 79 144 1.7 2.6 0.00 0.00 0.00 27 1013.0
20260503185406 79 175 2.6 2.6 0.00 0.00 0.00 28 1013.2
20260503184905 78 154 3.5 5.2 0.00 0.00 0.00 27 1012.8
20260503184402 78 134 0.9 1.7 0.00 0.00 0.00 28 1013.1
20260503183858 78 100 0.0 0.0 0.00 0.00 0.00 30 1013.2
20260503183355 78 143 1.7 2.6 0.00 0.00 0.00 28 1013.1
20260503182853 79 87 0.9 0.9 0.00 0.00 0.00 26 1013.2
20260503182351 79 271 1.7 1.7 0.00 0.00 0.00 27 1013.4
20260503181848 77 53 0.0 0.0 0.00 0.00 0.00 28 1013.3
20260503181345 77 100 0.9 1.7 0.00 0.00 0.00 30 1013.7
20260503180841 78 151 0.9 1.7 0.00 0.00 0.00 29 1013.7
20260503180340 77 93 0.9 0.9 0.00 0.00 0.00 30 1013.7
20260503175836 76 142 1.7 1.7 0.00 0.00 0.00 31 1013.9
20260503175334 76 163 0.9 1.7 0.00 0.00 0.00 32 1014.1
20260503174835 76 159 1.7 2.6 0.00 0.00 0.00 30 1014.0
20260503174333 75 88 0.0 0.0 0.00 0.00 0.00 31 1013.8
20260503173828 74 88 0.9 1.7 0.00 0.00 0.00 33 1014.2
20260503173325 74 135 1.7 1.7 0.00 0.00 0.00 32 1014.2
20260503172821 74 110 0.0 0.9 0.00 0.00 0.00 33 1014.2
20260503172319 74 117 0.9 0.9 0.00 0.00 0.00 34 1014.2
20260503171815 73 94 0.0 0.0 0.00 0.00 0.00 35 1014.3
20260503171312 73 106 0.9 0.9 0.00 0.00 0.00 34 1014.4
20260503170809 74 145 0.9 0.9 0.00 0.00 0.00 33 1014.6
20260503170306 74 118 0.0 0.9 0.00 0.00 0.00 32 1014.6